DMSP 5D-2 F11 DEB, 28334

Orbit data source: Space-Track

DMSP 5D-2 F11 DEB, 28334 is space debris in SSO originally from a launch on Thu, 28 Nov 1991 UTC launched from the Air Force Western Test Range (AFWTR). Debris objects in space refer to the collection of defunct objects orbiting the Earth. Examples of debris include non-operational satellites, rocket bodies, and fragments generated from explosions, collisions, or faulty payload assembly.

Loading next visibility...
Identifier
28334, 1991-082AX
Orbit
SSO
Country
Flag of USUS
Related business
Manufacturer
Unknown
Mission
Spacecraft
Bus & Motor
Unknown
Mass
Unknown
Launch date (UTC)
1991-11-28 (34 years ago)
Launch vehicle
Unknown
Launch site
Air Force Western Test Range (AFWTR)
Object type
Payload
Rocket body
Debris
Shape & HBR
Unknown shape, 0.1 m
Radar Cross Section
Small (<0.1 m²)

Expand to show TLE details & history
Last TLE update: 3 days ago

TLE from 3 days ago
0 DMSP 5D-2 F11 DEB
1 28334U 91082AX  26119.15328480  .00006714  00000-0  16243-2 0  9996
2 28334  98.8663 200.5599 0047153 357.0869   3.0043 14.52717484137307
Epoch: 2026-04-29T03:40Z
TLE epoch observation values (Epoch: 2026-04-29T03:40:43.806Z)
Latitude
-0.00008°
Longitude
-71.74095°
Altitude
686.326 km
Speed
7.531 km/s
True Right ascension
13h 22m 14s
True Declination
0° 00' 00"
Sunlit
Object was in full shadow at epoch
Visualization orbit readout
Latitude
Unknown
Longitude
Unknown
Altitude
Unknown
Speed
Unknown
Apparent Right ascension
Unknown
Apparent Declination
Unknown
Sunlit
N/A
Visualization observer readout
Local Sidereal Time
02:24:19
Azimuth
Unknown
Elevation
Unknown
Doppler factor
Unknown
Orbital elements
Apogee altitude
747.35 km
Perigee altitude
680.468 km
Semi-major axis
7,092.046 km
Eccentricity
0.00472
Inclination
98.8663°
RAAN
200.5599°
Arg. of periapsis
357.0869°
True anomaly
3.03279°
Mean anomaly
3.0043°
Eccentric anomaly
3.01853°
Mean motion
3.63401 °/min
Orbital period
99.06 mins
BSTAR
0.0016243
Loading maneuver chart data...
Computing Atmospheric mass density...

Documentation

Showing up to 5 results
|